Location: Katherine
(14.4670°S, 132.2670°E)
Time: 03:25:12
(UTC+09:30)

ISS - Pass Details

Date: 19 June 2018
Orbit: 402 x 406 km, 51.6° (Epoch: 20 June)

Event Time Altitude Azimuth Distance (km) Brightness Sun altitude
Exits shadow 06:16:02 - 198° (SSW) 1,627 -1.1 -11.6°
Reaches altitude 10° 06:16:27 10° 195° (SSW) 1,469 -1.3 -11.5°
Maximum altitude 06:19:28 32° 129° (SE) 715 -2.3 -10.8°
Drops below altitude 10° 06:22:27 10° 63° (ENE) 1,458 0.6 -10.1°
Sets 06:24:39 0° 53° (NE) 2,312 1.8 -9.6°
